2023-005A (55239 NORAD) Tracking and Keplerian Element Data

This shows tracking and keplerian element data for the satellite.

Feedback or suggestion? Click here.




ElementValue
Catalog55239
Name2023-005A
Epoch Orbit10
Epoch Day13.40443782
Epoch Year2023
RAAN20.9695
Inclination28.5069
Eccentricity0.0303135
Argument of Perigee94.8805
Mean Anonmoly15.9549
Mean Motion15.4374734
Decay Rate1.842E-05
L11 55239U 23005A 23013.40443782 .00001842 -58154-5 00000+0 0 9998
L22 55239 28.5069 20.9695 0303135 94.8805 15.9549 15.43747340 108



Live tracking and technical data element details for 2023-005A (NORAD 55239). 2023-005A can be tracked NOW for your location showing map with azimuth and elevation plus other details from your city location.







IsCatalogInMostPopularTable: catalog: 55239, numindb: 5
Update: records affected: 1



GetName: 55239 2023-005A

Hit Count: updated at: Tue, 07 Feb 2023 15:22:02 GMT